STARLINK-35362

Last updated on Mon Oct 20 2025 00:02:08 GMT+0000 (Coordinated Universal Time)

1 65888U 25224G 25292.25002315 -.01446695 00000+0 -77637-2 0 9996 2 65888 53.1512 313.5387 0001123 81.6615 20.1490 15.82212870 3104
UTC large
Height (km)
Speed (km/s)
/
Latitude / Longitude
Inclination (degrees)
Orbital Period (minutes)
Azimuth
Elevation
Range (km)
Doppler Factor

Next 0 passes for location: London (51.5072 / 0.1276)

Sorry there are no passes over London.